"TOA5","AWS1","CR1000","7964","CR1000.Std.14","CPU:AWS1_114.CR1","64363","TBL110"
"TIMESTAMP","RECORD","Wind_spd_WVc(1)","Wind_spd_WVc(2)","Air_Temp_Avg","Humidity_Avg","SW_upper_Wm2_Avg","Rain_Tot","Press_Avg","Issui_Tot","Depth_cm","SR50A_Raw","Quality","Ground_Temp_Avg(1)","Ground_Temp_Avg(2)","SW_lower_Wm2_Avg","Albedo_Avg","SWC_per(1)","SWC_per(2)","Period(1)","Period(2)"
"TS","RN","","","","","","","","","","","","","","","","","","",""
"","","WVc","WVc","Avg","Avg","Avg","Tot","Avg","Tot","Smp","Smp","Smp","Avg","Avg","Avg","Avg","Smp","Smp","Smp","Smp"
"2016-06-04 00:00:00",238381,0.069,173.4,8.95,87.8,0,0,866.5346,0,-32.65,3.452,224,15.98,15.49,0,0,47.89,55.77,32.77,34.7
"2016-06-04 00:10:00",238382,0,0,8.73,92.8,0,0,866.3956,0,-22.73,3.354,193,15.92,15.49,0.03790764,0,47.89,55.77,32.77,34.7
"2016-06-04 00:20:00",238383,0.203,256.7,8.76,91.7,0,0,866.3914,0,-23.75,3.362,190,15.94,15.5,0.3980347,0,47.89,55.77,32.77,34.7
"2016-06-04 00:30:00",238384,0.18,293.7,9.11,84.8,0,0,866.3956,0,-33.32,3.455,221,15.85,15.5,0.663394,0,47.84,55.77,32.76,34.7
"2016-06-04 00:40:00",238385,0.04,352.6,9.13,85.6,0,0,866.3956,0,-33.59,3.459,211,15.86,15.5,0.5345075,0,47.84,55.77,32.76,34.7
"2016-06-04 00:50:00",238386,0.034,131.7,8.5,90.7,0,0,866.3493,0,-26.42,3.395,198,15.77,15.5,0.02653585,0,47.84,55.77,32.76,34.7
"2016-06-04 01:00:00",238387,0.328,182.5,7.726,100,0,0,866.3204,0,-24.63,3.38,192,15.77,15.5,0,0,47.89,55.72,32.77,34.68
"2016-06-04 01:10:00",238388,0.334,185.1,7.57,100,0,0,866.3931,0,-25.9,3.392,197,15.68,15.54,0,0,47.89,55.72,32.77,34.68
"2016-06-04 01:20:00",238389,0.274,183.8,7.604,100,0,0,866.225,0,-24.69,3.38,198,15.69,15.56,0.1857504,0,47.89,55.72,32.77,34.68
"2016-06-04 01:30:00",238390,0.091,176.5,7.755,100,0,0,866.1775,0,-25.86,3.39,200,15.66,15.58,0.4397364,0,47.89,55.77,32.77,34.7
"2016-06-04 01:40:00",238391,0,0,8.23,96.8,0,0,866.09,0,-24.7,3.376,197,15.61,15.58,0.875683,0,47.89,55.77,32.77,34.7
"2016-06-04 01:50:00",238392,0.106,267.6,8.78,88.1,0,0,865.9625,0,-23.62,3.363,197,15.55,15.58,1.516335,0,47.84,55.77,32.76,34.7
"2016-06-04 02:00:00",238393,0.106,13.68,8.49,89.2,0,0,866.0079,0,-25.69,3.386,201,15.51,15.58,0.6747689,0,47.84,55.77,32.76,34.7
"2016-06-04 02:10:00",238394,0,0,8.51,88.4,0,0,866.074,0,-25.07,3.377,196,15.53,15.54,0.5686255,0,47.84,55.77,32.76,34.7
"2016-06-04 02:20:00",238395,0.022,168.6,8.31,87.9,0,0,866.0193,0,17.08,2.968,360,15.43,15.5,0.3828745,0,47.84,55.72,32.76,34.68
"2016-06-04 02:30:00",238396,0.063,180.4,7.808,93.8,0,0,866.2003,0,-25.45,3.387,199,15.43,15.44,0.1819602,0,47.89,55.72,32.77,34.68
"2016-06-04 02:40:00",238397,0.015,181.6,7.877,87,0,0,866.1674,0,8.62,3.048,356,15.33,15.42,0.4473187,0,47.84,55.72,32.76,34.68
"2016-06-04 02:50:00",238398,0.122,179.8,7.92,84.2,0,0,866.0945,0,-23.36,3.369,198,15.4,15.45,0.4549004,0,47.84,55.72,32.76,34.68
"2016-06-04 03:00:00",238399,0.195,174.2,7.719,81.3,0,0,865.9893,0,-24.19,3.373,213,15.28,15.49,0.5762071,0,47.84,55.66,32.76,34.67
"2016-06-04 03:10:00",238400,0.391,181.9,7.822,75.86,0,0,865.9797,0,318,0,0,15.3,15.5,0.4890179,0,47.84,55.72,32.76,34.68
"2016-06-04 03:20:00",238401,0.574,184.5,7.776,74.28,0,0,865.9767,0,-24.28,3.376,198,15.18,15.49,0.3639203,0,47.84,55.66,32.76,34.67
"2016-06-04 03:30:00",238402,0.449,193.3,7.72,73.23,0,0,865.9813,0,-25,3.382,200,15.21,15.44,0.2350319,0,47.84,55.72,32.76,34.68
"2016-06-04 03:40:00",238403,0.168,187.6,8.15,68.63,0,0,865.9835,0,-26.02,3.39,224,15.13,15.41,0.693723,0,47.89,55.72,32.77,34.68
"2016-06-04 03:50:00",238404,0.177,175.1,7.703,74.24,0,0,865.9794,0,-27.01,3.404,227,15.11,15.41,0.03032669,0,47.89,55.66,32.77,34.67
"2016-06-04 04:00:00",238405,0.205,185.5,7.171,76.73,0,0,865.9774,0,-26.65,3.403,232,15.07,15.38,0,0,47.84,55.72,32.76,34.68
"2016-06-04 04:10:00",238406,0.52,189.3,6.789,78.26,0,0,865.9804,0,-32.71,3.465,249,15,15.36,0,0,47.89,55.66,32.77,34.67
"2016-06-04 04:20:00",238407,0.499,195.3,6.653,79.04,0,0,865.9811,0,-33.32,3.471,266,15.06,15.39,0.03790836,0,47.84,55.66,32.76,34.67
"2016-06-04 04:30:00",238408,0.477,189.7,6.648,78.86,0,0,866.0108,0,-33.62,3.474,252,14.92,15.41,0.3487569,0,47.84,55.66,32.76,34.67
"2016-06-04 04:40:00",238409,0.408,185.7,6.549,78.86,0.1769232,0,866.0509,0,-33.67,3.475,243,14.97,15.41,0.5458804,0.301,47.84,55.66,32.76,34.67
"2016-06-04 04:50:00",238410,0.322,184.6,6.533,79.16,2.51231,0,866.2237,0,-33,3.469,247,14.84,15.41,0.9666633,0.446,47.89,55.66,32.77,34.67
"2016-06-04 05:00:00",238411,0.256,181.7,6.433,79.78,8.783254,0,866.2152,0,-33.17,3.472,258,14.86,15.4,1.887836,0.219,47.84,55.66,32.76,34.67
"2016-06-04 05:10:00",238412,0.385,181.7,6.382,80.8,12.55762,0,866.1415,0,7.107,3.074,303,14.83,15.39,2.270711,0.181,47.84,55.66,32.76,34.67
"2016-06-04 05:20:00",238413,0.349,189.4,6.413,80.2,17.90856,0,866.2258,0,-32.4,3.463,249,14.78,15.32,2.881036,0.161,47.84,55.66,32.76,34.67
"2016-06-04 05:30:00",238414,0.297,188.4,6.654,79.23,27.76122,0,866.2343,0,-34.83,3.486,313,14.74,15.29,4.602075,0.165,47.84,55.66,32.76,34.67
"2016-06-04 05:40:00",238415,0.377,188.6,6.806,79.6,38.62823,0,866.2195,0,7.329,3.068,306,14.66,15.31,6.956185,0.179,47.84,55.66,32.76,34.67
"2016-06-04 05:50:00",238416,0.067,155,7.589,75.99,74.07971,0,866.2363,0,7.63,3.061,339,14.65,15.31,15.33772,0.218,47.84,55.66,32.76,34.67
"2016-06-04 06:00:00",238417,0.075,122.1,7.867,75.96,63.63731,0,866.2405,0,7.351,3.064,315,14.65,15.28,11.26258,0.175,47.84,55.66,32.76,34.67
"2016-06-04 06:10:00",238418,0.043,156.7,7.591,78.48,67.17184,0,866.3375,0,6.951,3.067,285,14.59,15.3,16.53563,0.234,47.84,55.66,32.76,34.67
"2016-06-04 06:20:00",238419,0.111,164.1,8.13,79.4,74.74023,0,866.2343,0,7.231,3.06,305,14.54,15.24,30.7778,0.414,47.89,55.66,32.77,34.67
"2016-06-04 06:30:00",238420,0.012,125.5,9.14,74.94,119.6669,0,866.2363,0,7.105,3.057,293,14.54,15.24,34.1706,0.311,47.89,55.66,32.77,34.67
"2016-06-04 06:40:00",238421,0.233,32.12,9.94,67.36,186.3434,0,866.2264,0,-35.44,3.47,340,14.54,15.24,35.38745,0.248,47.89,55.6,32.77,34.65
"2016-06-04 06:50:00",238422,0.452,4.018,10.3,64.18,76.49767,0,866.3524,0,6.887,3.054,312,14.54,15.24,38.00313,0.498,47.84,55.6,32.76,34.65
"2016-06-04 07:00:00",238423,0.665,0.114,10.29,65.29,111.1401,0,866.4075,0,-4.512,3.166,216,14.45,15.23,38.89288,0.352,47.89,55.66,32.77,34.67
"2016-06-04 07:10:00",238424,0.715,0.551,10.36,65.26,125.3231,0,866.3986,0,2.65,3.094,334,14.38,15.2,43.24763,0.347,47.84,55.6,32.76,34.65
"2016-06-04 07:20:00",238425,0.5,33.42,10.75,64.66,179.5077,0,866.4048,0,-32.69,3.439,240,14.35,15.17,45.03889,0.253,47.84,55.6,32.76,34.65
"2016-06-04 07:30:00",238426,0.387,132.3,11.23,65.49,184.1162,0,866.419,0,-27.11,3.381,216,14.34,15.15,38.46133,0.208,47.73,55.6,32.73,34.65
"2016-06-04 07:40:00",238427,0.278,114.8,11.53,65.6,302.5287,0,866.4063,0,-25.37,3.363,243,14.34,15.15,46.42995,0.169,47.84,55.6,32.76,34.65
"2016-06-04 07:50:00",238428,0.336,79.52,11.8,63.07,533.6086,0,866.4631,0,-32.49,3.429,236,14.33,15.15,63.89947,0.119,47.84,55.6,32.76,34.65
"2016-06-04 08:00:00",238429,0.299,102.7,12.43,63.61,504.5312,0,866.4504,0,-26.9,3.372,270,14.31,15.12,70.67125,0.14,47.84,55.55,32.76,34.64
"2016-06-04 08:10:00",238430,0.369,110.5,12.73,64.04,483.0912,0,866.5381,0,-1.904,3.126,272,14.26,15.12,72.56978,0.15,47.84,55.6,32.76,34.65
"2016-06-04 08:20:00",238431,0.217,95.7,13.45,63.13,567.1188,0,866.6002,0,7.743,3.029,262,14.27,15.12,88.95249,0.156,47.84,55.6,32.76,34.65
"2016-06-04 08:30:00",238432,0.248,61.18,13.33,63.66,471.2543,0,866.6591,0,7.497,3.032,308,14.26,15.07,72.89392,0.153,47.89,55.6,32.77,34.65
"2016-06-04 08:40:00",238433,0.466,26.14,13.31,62.68,610.8505,0,866.6818,0,-4.068,3.145,216,14.24,15.01,99.41916,0.163,47.84,55.6,32.76,34.65
"2016-06-04 08:50:00",238434,0.372,126.8,13.58,63.22,596.7006,0,866.5617,0,318,0,0,14.23,14.93,96.12053,0.161,47.89,55.6,32.77,34.65
"2016-06-04 09:00:00",238435,0.293,45.46,13.44,62.27,576.5828,0,866.5675,0,8.05,3.024,339,14.23,14.92,91.72906,0.159,47.84,55.6,32.76,34.65
"2016-06-04 09:10:00",238436,0.43,110.3,14.29,61.7,775.1385,0,866.5653,0,318,0,0,14.23,14.92,126.0277,0.163,47.84,55.55,32.76,34.64
"2016-06-04 09:20:00",238437,0.704,133.7,14.71,57.06,779.5738,0,866.6158,0,-3.666,3.134,293,14.23,14.92,127.0656,0.162,47.84,55.55,32.76,34.64
"2016-06-04 09:30:00",238438,0.64,145.5,14.43,58.59,811.2136,0,866.5568,0,14.4,2.958,426,14.25,14.87,134.3655,0.165,47.84,55.55,32.76,34.64
"2016-06-04 09:40:00",238439,0.54,152.8,15.26,60.45,919.9589,0,866.3758,0,16.36,2.934,299,14.26,14.86,152.8901,0.166,47.84,55.55,32.76,34.64
"2016-06-04 09:50:00",238440,0.446,60.18,15.37,60.01,645.078,0,866.3799,0,-24.25,3.332,214,14.23,14.79,99.94924,0.154,47.79,55.55,32.74,34.64
"2016-06-04 10:00:00",238441,0.528,38.84,14.84,60.69,716.0741,0,866.2284,0,10.83,2.991,282,14.27,14.82,115.2083,0.161,47.84,55.55,32.76,34.64
"2016-06-04 10:10:00",238442,0.402,17.45,15.12,61.18,704.0639,0,866.1126,0,15.3,2.947,391,14.35,14.83,112.6583,0.16,47.79,55.55,32.74,34.64
"2016-06-04 10:20:00",238443,0.442,20.18,14.93,61.86,604.1425,0,866.0557,0,17.54,2.927,283,14.32,14.8,94.94374,0.157,47.79,55.55,32.74,34.64
"2016-06-04 10:30:00",238444,0.418,83.6,15.09,63.25,588.2379,0,866.1105,0,15.01,2.948,281,14.44,14.75,93.34947,0.159,47.79,55.49,32.74,34.63
"2016-06-04 10:40:00",238445,0.509,4.713,15.19,62.97,512.4706,0,866.1695,0,16.73,2.934,333,14.44,14.73,80.88652,0.158,47.73,55.49,32.73,34.63
"2016-06-04 10:50:00",238446,0.279,47.63,14.92,64.45,352.5164,0,866.1758,0,22.26,2.881,289,14.56,14.69,53.9257,0.153,47.79,55.49,32.74,34.63
"2016-06-04 11:00:00",238447,0.334,41.33,14.73,65.51,346.7213,0,866.2684,0,19.62,2.908,356,14.61,14.75,53.27793,0.154,47.79,55.49,32.74,34.63
"2016-06-04 11:10:00",238448,0.182,298.7,14.56,67.01,323.8195,0,866.2516,0,17.9,2.923,324,14.65,14.74,50.25491,0.155,47.73,55.49,32.73,34.63
"2016-06-04 11:20:00",238449,0.122,262.3,14.64,66.89,328.1256,0,866.0516,0,19.02,2.913,276,14.7,14.7,50.9671,0.155,47.73,55.49,32.73,34.63
"2016-06-04 11:30:00",238450,0.159,45.66,14.6,68.05,333.579,0,865.9652,0,18.41,2.918,333,14.78,14.67,52.13009,0.156,47.73,55.49,32.73,34.63
"2016-06-04 11:40:00",238451,0.288,99.2,14.6,67.37,332.2393,0,865.8074,0,-1.921,3.117,256,14.82,14.67,51.83461,0.156,47.73,55.49,32.73,34.63
"2016-06-04 11:50:00",238452,0.319,12.44,14.46,68.51,255.1298,0,865.7989,0,318,0,0,14.92,14.69,38.13251,0.149,47.73,55.49,32.73,34.63
"2016-06-04 12:00:00",238453,0.271,120.4,14.26,69.6,218.4492,0,865.7863,0,-27.17,3.365,198,14.97,14.72,33.10929,0.152,47.68,55.43,32.71,34.61
"2016-06-04 12:10:00",238454,0.246,359.4,14.43,68.34,370.4325,0,865.5715,0,-32.79,3.417,284,14.99,14.71,60.65744,0.163,47.73,55.43,32.73,34.61
"2016-06-04 12:20:00",238455,0.274,23.8,14.81,65.41,462.8845,0,865.5336,0,15.31,2.946,355,15.04,14.7,75.31039,0.163,47.68,55.43,32.71,34.61
"2016-06-04 12:30:00",238456,0.349,147.6,15.08,64.2,394.5248,0,865.3461,0,-25.89,3.349,172,15.07,14.7,62.62354,0.158,47.62,55.43,32.7,34.61
"2016-06-04 12:40:00",238457,0.298,12.87,14.81,63.99,334.1016,0,865.3104,0,-29.66,3.386,228,15.17,14.7,52.40663,0.156,47.68,55.43,32.71,34.61
"2016-06-04 12:50:00",238458,0.243,143,14.88,64.9,294.1128,0,865.3019,0,21.05,2.891,280,15.13,14.69,46.02722,0.156,47.62,55.43,32.7,34.61
"2016-06-04 13:00:00",238459,0.343,60.72,14.66,63.39,265.2862,0,865.2936,0,19.88,2.905,268,15.23,14.67,41.17069,0.155,47.62,55.43,32.7,34.61
"2016-06-04 13:10:00",238460,0.287,96.8,14.67,62.62,428.1644,0,865.1104,0,19.65,2.906,278,15.25,14.66,70.26443,0.163,47.62,55.43,32.7,34.61
"2016-06-04 13:20:00",238461,0.32,129.1,15.39,62.35,547.1446,0,865.0325,0,18.21,2.916,299,15.34,14.67,88.67911,0.162,47.57,55.37,32.69,34.6
"2016-06-04 13:30:00",238462,0.229,145.7,16.02,59.59,666.7731,0,865.041,0,18.01,2.914,322,15.32,14.66,108.647,0.159,47.57,55.43,32.69,34.61
"2016-06-04 13:40:00",238463,0.341,117.3,15.99,58.81,484.859,0,865.041,0,15.05,2.945,344,15.35,14.66,73.87463,0.151,47.62,55.43,32.7,34.61
"2016-06-04 13:50:00",238464,0.212,187.3,15.83,61.79,367.8159,0,864.9967,0,23.78,2.861,349,15.37,14.66,54.02043,0.147,47.57,55.43,32.69,34.61
"2016-06-04 14:00:00",238465,0.353,7.718,15.67,61.64,401.479,0,864.7882,0,17.01,2.927,309,15.43,14.66,61.50979,0.153,47.57,55.43,32.69,34.61
"2016-06-04 14:10:00",238466,0.302,359.2,15.76,60.67,401.3612,0,864.7882,0,17.29,2.925,300,15.46,14.66,61.72951,0.153,47.57,55.43,32.69,34.61
"2016-06-04 14:20:00",238467,0.368,30.23,15.52,61.37,332.6361,0,864.7882,0,17.9,2.919,308,15.57,14.66,50.42916,0.152,47.52,55.43,32.67,34.61
"2016-06-04 14:30:00",238468,0.302,98.7,15.73,62.35,409.0972,0,864.6661,0,19.72,2.9,350,15.56,14.66,63.95321,0.155,47.52,55.43,32.67,34.61
"2016-06-04 14:40:00",238469,0.416,45.95,15.96,61.4,462.7313,0,864.5356,0,17.72,2.919,304,15.62,14.66,71.4388,0.154,47.52,55.37,32.67,34.6
"2016-06-04 14:50:00",238470,0.168,87.6,15.99,62.36,359.3843,0,864.464,0,16.26,2.933,268,15.63,14.66,53.55826,0.148,47.52,55.37,32.67,34.6
"2016-06-04 15:00:00",238471,0.321,310.5,15.66,62.96,308.9485,0,864.3271,0,17.08,2.927,323,15.71,14.66,46.78108,0.151,47.52,55.37,32.67,34.6
"2016-06-04 15:10:00",238472,0.287,358.6,15.38,63.39,244.2427,0,864.3672,0,18.45,2.915,285,15.73,14.66,36.56417,0.15,47.46,55.37,32.66,34.6
"2016-06-04 15:20:00",238473,0.335,322.5,15.14,65.47,218.4807,0,864.5314,0,-26.56,3.354,201,15.75,14.66,33.17748,0.152,47.46,55.37,32.66,34.6
"2016-06-04 15:30:00",238474,0.348,3.959,15.37,64.29,311.3058,0,864.5356,0,19.45,2.904,408,15.85,14.66,48.81158,0.157,47.46,55.37,32.66,34.6
"2016-06-04 15:40:00",238475,0.233,81.4,15.51,63.75,263.6635,0,864.5061,0,17.94,2.92,307,15.82,14.68,40.73883,0.155,47.41,55.37,32.65,34.6
"2016-06-04 15:50:00",238476,0.245,124.8,15.27,64.98,244.3252,0,864.5356,0,16.99,2.929,360,15.92,14.71,37.28773,0.152,47.46,55.37,32.66,34.6
"2016-06-04 16:00:00",238477,0.394,101.3,15.22,65.28,234.7465,0,864.4935,0,13.8,2.962,406,15.95,14.72,35.88608,0.153,47.41,55.32,32.65,34.59
"2016-06-04 16:10:00",238478,0.332,118.3,14.95,66.34,168.5713,0,864.5356,0,15.54,2.946,430,15.92,14.74,24.29783,0.144,47.46,55.32,32.66,34.59
"2016-06-04 16:20:00",238479,0.23,66.05,14.59,66.33,152.773,0,864.5356,0,15.73,2.945,383,16.02,14.74,22.55145,0.147,47.41,55.32,32.65,34.59
"2016-06-04 16:30:00",238480,0.345,7.955,14.39,67.28,163.5894,0,864.5988,0,16.75,2.936,369,16.03,14.73,24.73726,0.151,47.36,55.32,32.63,34.59
"2016-06-04 16:40:00",238481,0.219,96.9,14.53,67.61,141.8663,0,864.6641,0,-23.22,3.326,176,16.05,14.75,20.96417,0.147,47.36,55.32,32.63,34.59
"2016-06-04 16:50:00",238482,0.362,71.3,14.26,65.1,144.3179,0,864.5399,0,15.71,2.947,360,16.05,14.75,22.21429,0.154,47.36,55.32,32.63,34.59
"2016-06-04 17:00:00",238483,0.268,121.2,14.41,65.57,172.567,0,864.7399,0,-15.42,3.25,170,16.07,14.78,27.29054,0.158,47.41,55.26,32.65,34.57
"2016-06-04 17:10:00",238484,0.226,127.5,14.21,62.98,139.5521,0,864.822,0,26.22,2.845,438,16.09,14.8,21.1157,0.151,47.36,55.32,32.63,34.59
"2016-06-04 17:20:00",238485,0.259,19.65,14.17,65.08,88.83347,0,865.041,0,-31.58,3.409,221,16.09,14.81,12.43304,0.14,47.36,55.26,32.63,34.57
"2016-06-04 17:30:00",238486,0.163,223.9,13.9,66.83,67.93758,0,865.2051,0,7.574,3.029,266,16.1,14.82,9.398952,0.137,47.3,55.26,32.62,34.57
"2016-06-04 17:40:00",238487,0.067,263.3,13.62,68.8,33.96669,0,865.3104,0,7.947,3.027,271,16.1,14.82,3.826241,0.112,47.3,55.26,32.62,34.57
"2016-06-04 17:50:00",238488,0,0,13.41,70.74,16.15619,0,865.462,0,7.706,3.03,240,16.1,14.83,0.9091979,0.045,47.36,55.26,32.63,34.57
"2016-06-04 18:00:00",238489,0.038,207.4,13.18,72.43,9.567688,0,865.6325,0,8.76,3.021,257,16.13,14.85,0.3561228,0.036,47.3,55.26,32.62,34.57
"2016-06-04 18:10:00",238490,0.042,191.9,12.95,74.09,8.790186,0,865.6307,0,9.54,3.014,270,16.17,14.86,0.5152693,0.059,47.36,55.26,32.63,34.57
"2016-06-04 18:20:00",238491,0.198,45.65,12.9,74.53,8.719836,0,865.4963,0,9.52,3.015,262,16.19,14.87,0.8866045,0.102,47.3,55.26,32.62,34.57
"2016-06-04 18:30:00",238492,0.331,51.49,12.68,76.56,6.574508,0,865.5643,0,-23.3,3.337,180,16.19,14.86,0.7691777,0.114,47.3,55.26,32.62,34.57
"2016-06-04 18:40:00",238493,0.241,72.47,12.53,79.99,7.714439,0,865.7603,0,-25.65,3.361,190,16.16,14.88,1.129178,0.142,47.3,55.26,32.62,34.57
"2016-06-04 18:50:00",238494,0.155,93.4,12.26,83.2,1.878559,0,865.5902,0,10.42,3.01,286,16.17,14.87,0.07578582,0.019,47.25,55.2,32.61,34.56
"2016-06-04 19:00:00",238495,0.302,54.1,11.91,86.6,0,0,865.6888,0,-24.32,3.352,194,16.18,14.88,0,0,47.3,55.2,32.62,34.56
"2016-06-04 19:10:00",238496,0.313,69.78,11.67,92.1,0,0,865.7625,0,-24.12,3.351,194,16.19,14.89,0,0,47.3,55.2,32.62,34.56
"2016-06-04 19:20:00",238497,0.182,40.75,11.63,96.4,0,0,866.0204,0,14.67,2.971,438,16.19,14.97,0,0,47.3,55.2,32.62,34.56
"2016-06-04 19:30:00",238498,0.169,67.07,11.52,98.3,0,0,866.1238,0,11.02,3.007,294,16.14,15.03,0,0,47.25,55.2,32.61,34.56
"2016-06-04 19:40:00",238499,0.016,163.7,11.6,96.9,0,0,866.1639,0,9.4,3.022,269,16.08,15.06,0.1288444,0,47.3,55.2,32.62,34.56
"2016-06-04 19:50:00",238500,0.197,133.9,11.58,96.1,0,0,866.1513,0,9.29,3.024,268,16.09,15.06,0.2538992,0,47.3,55.2,32.62,34.56
"2016-06-04 20:00:00",238501,0.468,147.9,11.42,98.9,0,0,865.9153,0,8.59,3.032,263,16.06,15.06,0,0,47.3,55.2,32.62,34.56
"2016-06-04 20:10:00",238502,0.314,119,11.41,98.9,0,0,865.9048,0,8.34,3.034,270,16.07,15.06,0.05684311,0,47.25,55.2,32.61,34.56
"2016-06-04 20:20:00",238503,0.631,145.1,11.25,100,0,0,866.1197,0,8.53,3.033,274,16.03,15.04,0,0,47.25,55.15,32.61,34.55
"2016-06-04 20:30:00",238504,0.404,156.5,11.13,100,0,0,866.1281,0,8.33,3.035,281,16.02,15.04,0.0189477,0,47.25,55.15,32.61,34.55
"2016-06-04 20:40:00",238505,0.363,76.34,11.21,96.5,0,0,866.3682,0,8.53,3.033,292,15.97,15.03,0.3675855,0,47.25,55.2,32.61,34.56
"2016-06-04 20:50:00",238506,0.046,101.2,11.28,93.3,0,0,866.2482,0,-32.69,3.436,201,15.99,15.02,0.4547449,0,47.25,55.15,32.61,34.55
"2016-06-04 21:00:00",238507,0.122,167.3,11.29,91.9,0,0,866.3956,0,8.66,3.032,344,15.89,15.02,0.4016913,0,47.2,55.15,32.59,34.55
"2016-06-04 21:10:00",238508,0.165,70.5,11.17,89.7,0,0,866.3914,0,-32.71,3.438,202,15.89,15.02,0.4547449,0,47.25,55.2,32.61,34.56
"2016-06-04 21:20:00",238509,0.208,304.4,11.02,91.8,0,0,866.5599,0,-2.083,3.138,240,15.92,15.06,0.5570625,0,47.3,55.2,32.62,34.56
"2016-06-04 21:30:00",238510,0.135,203,10.92,90.5,0,0,866.6484,0,-3.315,3.152,212,15.9,15.07,0.7654873,0,47.25,55.2,32.61,34.56
"2016-06-04 21:40:00",238511,0.549,144.7,10.5,98.4,0,0,866.4209,0,-3.09,3.151,226,15.81,15.07,0.4547449,0,47.25,55.15,32.61,34.55
"2016-06-04 21:50:00",238512,0.19,136.7,10.51,99.9,0,0,866.1492,0,-2.887,3.149,223,15.8,15.09,0.833699,0,47.25,55.2,32.61,34.56
"2016-06-04 22:00:00",238513,0.02,196.4,10.53,96.2,0,0,866.265,0,-2.503,3.145,211,15.82,15.11,0.9094898,0,47.2,55.15,32.59,34.55
"2016-06-04 22:10:00",238514,0.019,19.03,10.46,87.4,0,0,866.1492,0,-3.269,3.153,208,15.77,15.11,0.9928597,0,47.25,55.15,32.61,34.55
"2016-06-04 22:20:00",238515,0.039,189.7,10.24,87,0,0,866.145,0,-2.995,3.152,209,15.72,15.13,0.9132794,0,47.2,55.09,32.59,34.53
"2016-06-04 22:30:00",238516,0.018,55.66,10.05,90.3,0,0,866.2376,0,-2.311,3.146,208,15.75,15.13,0.9132794,0,47.2,55.09,32.59,34.53
"2016-06-04 22:40:00",238517,0.02,69.05,9.93,91.7,0,0,866.2629,0,-2.034,3.144,226,15.71,15.16,1.068651,0,47.2,55.15,32.59,34.55
"2016-06-04 22:50:00",238518,0.002,25.6,9.72,98,0,0,866.1218,0,-4.964,3.174,194,15.65,15.14,0.9094898,0,47.2,55.15,32.59,34.55
"2016-06-04 23:00:00",238519,0.01,96.2,9.61,100,0,0,865.8817,0,-29.89,3.42,220,15.67,15.17,0.9094898,0,47.2,55.15,32.59,34.55
"2016-06-04 23:10:00",238520,0,0,9.58,100,0,0,865.8691,0,-5.781,3.183,204,15.66,15.16,0.9094898,0,47.25,55.09,32.61,34.53
"2016-06-04 23:20:00",238521,0.118,135.9,9.38,100,0,0,865.5826,0,-3.854,3.166,237,15.58,15.19,0.8602258,0,47.25,55.09,32.61,34.53
"2016-06-04 23:30:00",238522,0.107,174.9,9.15,100,0,0,865.4962,0,-1.617,3.144,263,15.58,15.15,0.7086442,0,47.2,55.09,32.59,34.53
"2016-06-04 23:40:00",238523,0.012,180.8,9.13,98.3,0,0,865.3846,0,-28.28,3.406,270,15.58,15.15,0.9057003,0,47.2,55.15,32.59,34.55
"2016-06-04 23:50:00",238524,0.135,330.1,9.04,92.8,0,0,865.3741,0,-24.87,3.374,170,15.57,15.12,1.121704,0,47.2,55.15,32.59,34.55
